Location: Lecco
(45.8566°N, 9.3977°E)
Time: 13:21:22
(UTC+02:00)

Explorer 11/Cluster Stage 4 - Pass Details

Date: 23 August 2020
Orbit: 467 x 1258 km, 28.8° (Epoch: 24 September)

Event Time Altitude Azimuth Distance (km) Brightness Sun altitude
Rises 20:26:09 0° 236° (WSW) 3,225 10.3 -2.4°
Reaches altitude 10° 20:29:28 10° 214° (SW) 2,464 9.3 -3.0°
Maximum altitude 20:32:52 16° 180° (S) 2,244 8.7 -3.5°
Drops below altitude 10° 20:36:38 10° 146° (SE) 2,791 8.9 -4.2°
Enters shadow 20:39:31 - 131° (SE) 3,534 9.3 -4.6°
Sets 20:40:48 0° 126° (SE) 3,907 - -4.8°
